AirNav   Pilot Hours Calculator
 
 469 users online  

6CA6 Eagle Ridge Ranch Airport
Railroad Flat, California, USA

GOING TO RAILROAD FLAT?


FAA INFORMATION EFFECTIVE 12 SEPTEMBER 2019

Location

FAA Identifier: 6CA6
Lat/Long: 38-19-39.6920N 120-28-37.7270W
38-19.661533N 120-28.628783W
38.3276922,-120.4771464
(estimated)
Elevation: 2870 ft. / 875 m (estimated)
Variation: 16E (1985)
From city: 2 miles SE of RAILROAD FLAT, CA
Time zone: UTC -7 (UTC -8 during Standard Time)
Zip code: 95246

Airport Operations

Airport use: Private use. Permission required prior to landing
Activation date: 08/1990
Control tower: no
ARTCC: OAKLAND CENTER
FSS: RANCHO MURIETA FLIGHT SERVICE STATION
Attendance: UNATNDD
Wind indicator: yes
Segmented circle: no

Airport Communications

WX AWOS-3P at CPU (14 nm SW): 118.525 (209-736-2523)
WX AWOS-3 at JAQ (15 nm W): 121.125 (209-257-1292)
WX AWOS-3 at O22 (18 nm S): 124.65 (209-536-9384)

Nearby radio navigation aids

VOR radial/distance  VOR name  Freq  Var
HNWr135/27.0HANGTOWN VOR/DME115.5017E
LINr042/29.1LINDEN VOR/DME114.8017E

Airport Services

Runway Information

Runway 8/26

Dimensions: 4000 x 33 ft. / 1219 x 10 m
Surface: asphalt/gravel
1500 FT ASPH; 2500 FT GRAVEL.
RUNWAY 8  RUNWAY 26
Traffic pattern: leftleft
Obstructions: none180 ft. trees, 3000 ft. from runway

Airport Ownership and Management from official FAA records

Ownership: Privately-owned
Owner: KENNETH L. WAGNER, JR.
1599 TOP DOLLAR RD, PO BOX 549
RAILROAD FLAT, CA 95248
Phone 209-293-1375
Manager: KENNETH L. WAGNER, JR.
1599 TOP DOLLAR RD, PO BOX 549
RAILROAD FLAT, CA 95248
Phone 209-293-1375

Airport Operational Statistics

Aircraft based on the field: 1
Multi engine airplanes: 1
    

Additional Remarks

FOR CD CTC NORCAL APCH AT 916-361-6874.

Instrument Procedures

There are no published instrument procedures at 6CA6.

Some nearby airports with instrument procedures:

KCPU - Calaveras County Airport - Maury Rasmussen Field (14 nm SW)
KJAQ - Westover Field / Amador County Airport (15 nm W)
O22 - Columbia Airport (18 nm S)
KPVF - Placerville Airport (27 nm NW)
E45 - Pine Mountain Lake Airport (31 nm SE)
 
Loc | Ops | Rwys | IFR | FBO | Links
Com | Nav | Svcs | Stats | Notes
Area around 6CA6 (Eagle Ridge Ranch Airport)
 
Road maps at: MapQuest Bing Google
 
Aerial photo
No photo
 
Sectional chart

 
Airport distance calculator
Flying to Eagle Ridge Ranch Airport? Find the distance to fly.

From to 6CA6

Sunrise and sunset
Times for 20-Sep-2019
 Local
(UTC-7)
 Zulu
(UTC)
Morning civil twilight06:2313:23
Sunrise06:4913:49
Sunset19:0202:02
Evening civil twilight19:2802:28

Current date and time
Zulu (UTC)  20-Sep-2019 10:45:52
Local (UTC-7)  20-Sep-2019 03:45:52
 
METAR
KCPU 
14nm SW 
201035Z AUTO 11004KT 10SM CLR 10/06 A2993 RMK AO2 T01020059
KJAQ 
15nm W 
201035Z AUTO 15003KT 10SM CLR 13/09 A2993 RMK AO1 T01300085
KO22 
18nm S 
201035Z AUTO 00000KT 10SM CLR 09/06 A2995 RMK A01
KPVF 
27nm NW 
201035Z AUTO 09008KT 10SM CLR 13/03 A2997 RMK AO1
TAF
KMHR 
40nm W 
200539Z 2006/2106 VRB04KT P6SM SKC FM201800 32009KT P6SM SKC FM210300 VRB05KT P6SM SKC AMD NOT SKED
KTVL 
41nm NE 
200520Z 2006/2106 18004KT P6SM BKN050 FM201200 VRB03KT P6SM SCT050 SCT180 FM202000 03007KT P6SM SCT070 FM210200 VRB03KT P6SM FEW070
KSCK 
44nm SW 
200539Z 2006/2106 31008KT P6SM SKC FM200900 VRB04KT P6SM SKC FM201800 32008KT P6SM SKC
KMCC 
48nm NW 
200539Z 2006/2106 VRB04KT P6SM SKC FM201800 31008KT P6SM SKC FM210300 27005KT P6SM SKC
KMOD 
48nm SW 
200539Z 2006/2106 33009KT P6SM SKC FM200700 34004KT P6SM SKC FM201800 31009KT P6SM SKC
KSAC 
49nm W 
200539Z 2006/2106 VRB04KT P6SM SKC FM201800 34009KT P6SM SKC FM210300 30006KT P6SM SKC
NOTAMs
Click for the latest NOTAMs
NOTAMs are issued by the DoD/FAA and will open in a separate window not controlled by AirNav.

 

 
 

Would you like to see your business listed on this page?

 If your business provides an interesting product or service to pilots, flight crews, aircraft, or users of the Eagle Ridge Ranch Airport, you should consider listing it here.  To start the listing process, click on the button below
 
Add a business
 

Other Pages about Eagle Ridge Ranch Airport

Update a link
 
Copyright © AirNav, LLC. All rights reserved. Privacy Policy  Contact